[[{"header":{"parameterUnit":"m.s-1","parameterCategory":1,"la1":30.2991,"la2":30.254,"lo1":-89.0895,"lo2":-89.0444,"dy":0.0017,"dx":0.0017,"nx":28,"ny":28,"refTime":"2025-08-30T03:00:00:Z","depth":0,"parameterNumber":2,"parameterNumberName":"U-component_of_WINDS"},"data":[0,0,0,0,0,0,0,0,0,0,0,0,0,0,0,0,0,0,0,0,0,0,0,0,0,0,0,0,0,0,0,0,0,0,0,0,0,0,0,0,0,0,0,0,0,0,0,0,0,0,0,0,0,0,0,0,0,0,-0.5314,-0.5314,0,-0.53,-0.53,-0.53,-0.5281,-0.5281,-0.528,-0.528,-0.5267,-0.5267,-0.5267,0,0,0,0,0,0,0,0,0,0,0,0,0,-0.5326,-0.5326,-0.5314,-0.5314,-0.5314,-0.53,-0.53,-0.53,-0.5281,-0.5281,-0.528,-0.528,-0.5267,-0.5267,-0.5267,0,0,0,0,0,0,0,0,0,0,0,0,0,-0.5317,-0.5326,-0.5314,-0.5303,-0.5301,-0.53,-0.53,-0.53,-0.5281,-0.5281,-0.528,-0.528,-0.5267,-0.5267,-0.5267,-0.5276,0,0,-0.5266,-0.5266,0,0,0,0,0,0,0,0,-0.5318,-0.5317,-0.5304,-0.5303,-0.5302,-0.5292,-0.5299,-0.5292,-0.5281,-0.5289,-0.528,-0.528,-0.5276,-0.5275,-0.5273,-0.5275,-0.5274,-0.5266,-0.5266,-0.5266,-0.5266,0,0,0,0,0,0,0,-0.5318,-0.5317,-0.5308,-0.5304,-0.5303,-0.5299,-0.5297,-0.5298,-0.5285,-0.5288,-0.5287,-0.5285,-0.5275,-0.5273,-0.5273,-0.5274,-0.5266,-0.5266,-0.5266,-0.5266,-0.5284,-0.5284,0,0,0,0,0,0,-0.532,-0.5318,-0.5309,-0.5308,-0.5309,-0.5299,-0.5297,-0.5296,-0.5285,-0.5283,-0.5286,-0.5285,-0.5274,-0.5273,-0.5272,-0.5283,-0.5266,-0.5266,-0.5266,-0.5283,-0.5284,-0.5285,0,0,0,0,0,0,-0.5321,-0.532,-0.5309,-0.5313,-0.5311,-0.5299,-0.5298,-0.5296,-0.5294,-0.5283,-0.5281,-0.5286,-0.5273,-0.5272,-0.5275,-0.5282,-0.5266,-0.5266,-0.5283,-0.5284,-0.5284,-0.5303,0,0,0,0,0,0,-0.5321,-0.532,-0.5323,-0.5313,-0.5311,-0.5312,-0.5298,-0.5296,-0.5294,-0.5292,-0.5283,-0.5281,-0.5273,-0.5275,-0.5275,-0.5282,-0.5266,-0.5282,-0.5283,-0.5284,-0.5302,-0.5305,-0.5307,0,0,0,0,0,-0.5322,-0.5329,-0.5323,-0.5322,-0.5314,-0.5313,-0.5312,-0.5301,-0.5294,-0.5298,-0.5291,-0.5282,-0.5281,-0.5276,-0.5275,-0.5282,-0.5282,-0.5283,-0.5284,-0.5301,-0.5304,-0.5307,0,0,0,0,0,0,-0.534,-0.5327,-0.5321,-0.5325,-0.532,-0.5309,-0.5313,-0.5305,-0.5302,-0.5301,-0.5288,-0.5287,-0.5291,-0.5287,-0.5281,-0.5291,-0.528,-0.5281,-0.5293,-0.5296,-0.5299,-0.53,-0.5266,0,0,0,0,0,-0.5344,-0.5344,-0.5333,-0.5337,-0.5335,-0.5325,-0.5324,-0.5316,-0.5311,-0.5309,-0.5302,-0.5298,-0.5297,-0.5296,-0.5294,-0.5301,-0.53,-0.5306,-0.5308,-0.531,-0.5312,-0.5316,-0.5319,-0.5289,-0.5288,-0.5288,0,0,-0.5354,-0.5347,-0.5347,-0.5341,-0.5336,-0.5337,-0.5323,-0.5324,-0.5324,-0.5309,-0.5311,-0.5306,-0.5301,-0.5306,-0.5308,-0.5302,-0.532,-0.5312,-0.5314,-0.5314,-0.5318,-0.532,-0.5323,-0.5289,-0.5289,-0.5289,0,0,-0.5371,-0.5365,-0.5369,-0.5365,-0.5358,-0.5351,-0.5352,-0.5343,-0.5339,-0.5341,-0.533,-0.5331,-0.5329,-0.5325,-0.5323,-0.534,-0.5332,-0.534,-0.5353,-0.5358,-0.536,-0.5362,-0.5369,-0.5371,-0.5342,-0.5342,-0.5342,0,-0.5383,-0.5383,-0.5372,-0.5373,-0.5371,-0.5358,-0.5362,-0.5358,-0.5352,-0.5351,-0.5345,-0.5343,-0.5338,-0.5343,-0.5347,-0.5346,-0.5347,-0.5341,-0.536,-0.5362,-0.5364,-0.5371,-0.5373,-0.5343,-0.5342,-0.5342,-0.5342,0,-0.5399,-0.5399,-0.5403,-0.5397,-0.5395,-0.5398,-0.5388,-0.5388,-0.5381,-0.5375,-0.5378,-0.5372,-0.5369,-0.5369,-0.5362,-0.5374,-0.537,-0.5363,-0.5352,-0.5368,-0.5374,-0.5377,-0.5344,-0.5344,-0.5343,-0.5343,0,0,-0.5427,-0.5415,-0.5417,-0.5414,-0.5406,-0.5406,-0.5409,-0.5406,-0.5407,-0.5403,-0.5405,-0.5405,-0.5398,-0.5395,-0.5388,-0.5392,-0.5407,-0.5384,-0.5384,-0.5389,-0.542,-0.5426,-0.5429,-0.5402,-0.5402,-0.5402,-0.5421,0,-0.5443,-0.5446,-0.5437,-0.5443,-0.5443,-0.5431,-0.5433,-0.5429,-0.5424,-0.5424,-0.5418,-0.5418,-0.5408,-0.5407,-0.541,-0.5405,-0.5413,-0.5403,-0.5405,-0.5405,-0.5407,-0.5432,-0.5438,-0.5456,-0.5423,-0.5423,-0.5423,0,-0.5462,-0.5459,-0.5465,-0.5458,-0.5458,-0.546,-0.5457,-0.5457,-0.5453,-0.5448,-0.5447,-0.5438,-0.5441,-0.5431,-0.5435,-0.5429,-0.5429,-0.5426,-0.5427,-0.5427,-0.5415,-0.5433,-0.5461,-0.5464,-0.5427,-0.5426,-0.5426,0,-0.5482,-0.548,-0.5484,-0.5482,-0.5473,-0.5475,-0.5472,-0.5467,-0.5466,-0.5464,-0.5463,-0.5462,-0.5461,-0.546,-0.5452,-0.5445,-0.5458,-0.5447,-0.5455,-0.5455,-0.5458,-0.5458,-0.5487,-0.5458,-0.5458,-0.5458,-0.5458,0,-0.5501,-0.5506,-0.5493,-0.5495,-0.55,-0.549,-0.5495,-0.5491,-0.5486,-0.5488,-0.5477,-0.5479,-0.5468,-0.5469,-0.5463,-0.5468,-0.5468,-0.5465,-0.5463,-0.5466,-0.5467,-0.5466,-0.5465,-0.5458,-0.5458,-0.5458,-0.5458,0,-0.5525,-0.5517,-0.552,-0.5512,-0.551,-0.5514,-0.5507,-0.5509,-0.5503,-0.5506,-0.5506,-0.5497,-0.5498,-0.5489,-0.5489,-0.5484,-0.5493,-0.5489,-0.5494,-0.5493,-0.5503,-0.5502,-0.5532,-0.5536,-0.5504,-0.5504,-0.5505,0,-0.5538,-0.5541,-0.5534,-0.5534,-0.5531,-0.5532,-0.5531,-0.5521,-0.5521,-0.5517,-0.552,-0.5519,-0.5519,-0.5521,-0.5515,-0.5514,-0.551,-0.5521,-0.551,-0.5513,-0.5511,-0.5511,-0.5512,-0.5523,-0.5524,-0.5524,-0.5524,0,-0.5562,-0.5558,-0.5557,-0.5556,-0.5555,-0.5553,-0.5551,-0.5552,-0.5541,-0.5542,-0.5542,-0.5542,-0.5541,-0.5542,-0.554,-0.5537,-0.553,-0.5528,-0.553,-0.5533,-0.5537,-0.5536,-0.5501,-0.5527,-0.5527,-0.5527,-0.5527,-0.5527,-0.5581,-0.5584,-0.5579,-0.5579,-0.5576,-0.5574,-0.5576,-0.5571,-0.5571,-0.557,-0.5564,-0.5566,-0.5562,-0.556,-0.5558,-0.5559,-0.5554,-0.5557,-0.5558,-0.5559,-0.5561,-0.5536,-0.5559,-0.5559,-0.5559,-0.5559,-0.5559,0,-0.5606,-0.5602,-0.5602,-0.5599,-0.5599,-0.5592,-0.5589,-0.559,-0.5591,-0.5588,-0.5588,-0.559,-0.559,-0.5584,-0.5584,-0.5587,-0.5583,-0.5587,-0.5587,-0.5587,-0.5565,-0.5564,-0.559,-0.559,-0.559,-0.559,-0.559,-0.559,-0.5618,-0.5623,-0.5618,-0.5621,-0.5618,-0.5619,-0.5619,-0.5617,-0.5615,-0.5617,-0.5617,-0.5613,-0.5609,-0.5609,-0.561,-0.5608,-0.5609,-0.5614,-0.5611,-0.5591,-0.5588,-0.5585,-0.5584,-0.5614,-0.5614,-0.5633,-0.5633,-0.5633]},{"header":{"parameterUnit":"m.s-1","parameterCategory":1,"la1":30.2991,"la2":30.254,"lo1":-89.0895,"lo2":-89.0444,"dy":0.0017,"dx":0.0017,"nx":28,"ny":28,"refTime":"2025-08-30T03:00:00:Z","depth":0,"parameterNumber":3,"parameterNumberName":"V-component_of_WINDS"},"data":[0,0,0,0,0,0,0,0,0,0,0,0,0,0,0,0,0,0,0,0,0,0,0,0,0,0,0,0,0,0,0,0,0,0,0,0,0,0,0,0,0,0,0,0,0,0,0,0,0,0,0,0,0,0,0,0,0,0,0.9576,0.9575,0,0.9534,0.9534,0.9533,0.9513,0.9513,0.9513,0.9513,0.9468,0.9466,0.9465,0,0,0,0,0,0,0,0,0,0,0,0,0,0.9634,0.9633,0.9576,0.9575,0.9575,0.9534,0.9534,0.9533,0.9513,0.9513,0.9513,0.9513,0.9468,0.9467,0.9465,0,0,0,0,0,0,0,0,0,0,0,0,0,0.9602,0.9633,0.9576,0.956,0.9558,0.9534,0.9534,0.9533,0.9513,0.9513,0.9513,0.9513,0.9468,0.9467,0.9465,0.9454,0,0,0.9459,0.9459,0,0,0,0,0,0,0,0,0.9604,0.96,0.9563,0.9561,0.9559,0.9529,0.9538,0.9506,0.9513,0.953,0.9513,0.9513,0.9488,0.9484,0.9476,0.9452,0.945,0.9459,0.9458,0.9457,0.9457,0,0,0,0,0,0,0,0.9606,0.9602,0.9559,0.9562,0.956,0.9553,0.9549,0.9532,0.9509,0.9528,0.9527,0.9522,0.9487,0.9478,0.9475,0.9449,0.9459,0.9458,0.9457,0.9456,0.9412,0.9412,0,0,0,0,0,0,0.9612,0.9604,0.9561,0.9558,0.9582,0.9552,0.9547,0.9538,0.9509,0.9505,0.9522,0.9521,0.9481,0.9477,0.9474,0.9458,0.9457,0.9456,0.9455,0.9412,0.9412,0.9412,0,0,0,0,0,0,0.9613,0.9608,0.9562,0.9581,0.9574,0.9551,0.9541,0.9537,0.9529,0.9505,0.95,0.9518,0.9481,0.9476,0.9459,0.9456,0.9455,0.9453,0.9412,0.9412,0.9412,0.9427,0,0,0,0,0,0,0.9615,0.9609,0.9605,0.9581,0.9573,0.9549,0.9541,0.9537,0.9526,0.9525,0.95,0.9495,0.9481,0.9462,0.9457,0.9454,0.9452,0.9412,0.9412,0.9412,0.9427,0.9428,0.9429,0,0,0,0,0,0.9617,0.9611,0.9605,0.96,0.9568,0.9549,0.9545,0.9529,0.9526,0.9522,0.9506,0.9496,0.9457,0.946,0.9455,0.9451,0.9412,0.9412,0.9412,0.9427,0.9428,0.9429,0,0,0,0,0,0,0.9635,0.9607,0.96,0.9586,0.957,0.9546,0.954,0.953,0.9514,0.9513,0.9493,0.9488,0.9472,0.946,0.9463,0.9438,0.9434,0.9433,0.9447,0.9448,0.9448,0.9451,0.945,0,0,0,0,0,0.9637,0.9624,0.9601,0.959,0.9583,0.9563,0.9554,0.9543,0.9525,0.9518,0.9501,0.9483,0.9467,0.9457,0.944,0.9425,0.9419,0.942,0.9421,0.9421,0.942,0.941,0.941,0.9411,0.9411,0.9411,0,0,0.9641,0.9625,0.9618,0.9594,0.958,0.9566,0.9557,0.9543,0.9533,0.9515,0.9498,0.9485,0.9464,0.9448,0.9439,0.9437,0.9419,0.9421,0.9422,0.942,0.941,0.941,0.941,0.9411,0.9411,0.9411,0,0,0.9643,0.9629,0.9619,0.9605,0.9585,0.9571,0.9569,0.9546,0.9536,0.9519,0.9505,0.9492,0.9465,0.945,0.9439,0.9434,0.9424,0.9429,0.9433,0.9424,0.9423,0.9423,0.9421,0.942,0.9428,0.9428,0.9428,0,0.9651,0.9631,0.9615,0.9601,0.9591,0.9575,0.9564,0.9551,0.9526,0.9518,0.9516,0.9481,0.9465,0.9445,0.9444,0.9436,0.9431,0.9432,0.9425,0.9425,0.9424,0.9422,0.9421,0.9429,0.9429,0.9429,0.9429,0,0.9641,0.9627,0.9621,0.9598,0.9586,0.9574,0.9555,0.9545,0.9535,0.9522,0.9504,0.9485,0.9464,0.9458,0.9448,0.9436,0.9435,0.9429,0.9424,0.9425,0.9422,0.9421,0.943,0.943,0.943,0.9429,0,0,0.9652,0.962,0.9618,0.9607,0.9583,0.9572,0.9558,0.9539,0.953,0.9513,0.9501,0.9478,0.9472,0.946,0.9447,0.9439,0.9436,0.9434,0.9433,0.9435,0.942,0.9425,0.9424,0.9429,0.9429,0.9429,0.9422,0,0.965,0.9626,0.9611,0.9593,0.9579,0.9564,0.9552,0.9536,0.9522,0.9508,0.9493,0.9477,0.9471,0.9463,0.9455,0.9438,0.9432,0.9438,0.9416,0.9416,0.9422,0.9423,0.9427,0.9422,0.9421,0.9421,0.942,0,0.9644,0.9628,0.9609,0.9585,0.9579,0.9569,0.9549,0.9536,0.9517,0.9508,0.9494,0.9481,0.9466,0.9462,0.944,0.9444,0.9434,0.9425,0.9424,0.9421,0.9418,0.9419,0.942,0.9419,0.9419,0.9419,0.9419,0,0.9653,0.9627,0.9612,0.9603,0.9576,0.9569,0.9557,0.9537,0.9526,0.9509,0.9501,0.9482,0.9471,0.9456,0.9439,0.9438,0.9417,0.9413,0.9409,0.9409,0.9405,0.9405,0.9403,0.9399,0.9399,0.9399,0.9399,0,0.9652,0.964,0.9616,0.9606,0.9593,0.9575,0.9562,0.9548,0.9531,0.9518,0.9503,0.9491,0.9469,0.9454,0.944,0.9423,0.9418,0.941,0.9406,0.9411,0.9412,0.9404,0.9404,0.9399,0.9399,0.9399,0.9399,0,0.966,0.9643,0.9625,0.9601,0.9595,0.9586,0.9564,0.9554,0.954,0.9524,0.9519,0.9497,0.9478,0.9459,0.9434,0.9425,0.9408,0.9403,0.9415,0.9412,0.9409,0.9409,0.9401,0.9399,0.9397,0.9397,0.9397,0,0.966,0.9651,0.9626,0.9616,0.9605,0.959,0.9579,0.956,0.9549,0.9526,0.9518,0.9499,0.9482,0.9453,0.9434,0.9414,0.9409,0.9407,0.9406,0.941,0.9408,0.9409,0.9407,0.9408,0.9408,0.9408,0.9408,0,0.9661,0.9653,0.9638,0.962,0.9607,0.9591,0.9575,0.9568,0.9546,0.9534,0.9515,0.9503,0.9477,0.9457,0.9436,0.9422,0.9411,0.9409,0.9407,0.9411,0.9418,0.9414,0.9416,0.9409,0.9409,0.9409,0.9409,0.9409,0.9665,0.9656,0.9637,0.962,0.9606,0.9591,0.958,0.9565,0.9549,0.9527,0.9517,0.9498,0.9478,0.9447,0.9434,0.9418,0.9415,0.9413,0.9412,0.9411,0.9412,0.9421,0.9414,0.9414,0.9414,0.9414,0.9414,0,0.9665,0.9652,0.9637,0.9615,0.9601,0.9593,0.9575,0.9564,0.9547,0.953,0.9514,0.9492,0.9473,0.9452,0.9431,0.9423,0.9417,0.9418,0.9418,0.9415,0.9416,0.942,0.9423,0.9423,0.9423,0.9423,0.9423,0.9423,0.9664,0.9648,0.9637,0.9614,0.96,0.9582,0.9572,0.9558,0.9544,0.952,0.9505,0.9492,0.9472,0.945,0.9432,0.9426,0.9419,0.9421,0.9414,0.9415,0.9415,0.9414,0.9418,0.942,0.942,0.9414,0.9414,0.9414]}]]